![]() |
EMODnet Physics ERDDAP
Easier access to scientific data |
log in|
Brought to you by EMODnet Physics |
| Dataset Title: | NDBC - Collection of dew point temperature (DEWT) TimeSeries - IN SITU MultiPointTimeSeriesObservation
|
| Institution: | NDBC (Dataset ID: TS_DEWT_NDBC) |
| Information: | Summary
| License
| FGDC
| ISO 19115
| Metadata
| Background
| Subset
| Data Access Form
| Make a graph
|
| Name | Last modified | Size | Description | |
|---|---|---|---|---|
| Parent Directory | - | - | ||
| 44018_TS_DEWT_012003.nc | 26-Oct-2024 17:50 | 588182 | ||
| 44018_TS_DEWT_012004.nc | 26-Oct-2024 17:50 | 588063 | ||
| 44018_TS_DEWT_012005.nc | 26-Oct-2024 17:50 | 588195 | ||
| 44018_TS_DEWT_012006.nc | 26-Oct-2024 17:50 | 588133 | ||
| 44018_TS_DEWT_012007.nc | 26-Oct-2024 17:50 | 439849 | ||
| 44018_TS_DEWT_012008.nc | 26-Oct-2024 17:50 | 433817 | ||
| 44018_TS_DEWT_012009.nc | 26-Oct-2024 17:50 | 588135 | ||
| 44018_TS_DEWT_012010.nc | 26-Oct-2024 17:50 | 629432 | ||
| 44018_TS_DEWT_012011.nc | 26-Oct-2024 17:50 | 3759281 | ||
| 44018_TS_DEWT_012012.nc | 26-Oct-2024 17:50 | 2288232 | ||
| 44018_TS_DEWT_012016.nc | 26-Oct-2024 17:50 | 429425 | ||
| 44018_TS_DEWT_012019.nc | 26-Oct-2024 17:50 | 429423 | ||
| 44018_TS_DEWT_012020.nc | 26-Oct-2024 17:50 | 429428 | ||
| 44018_TS_DEWT_012021.nc | 26-Oct-2024 17:50 | 428415 | ||
| 44018_TS_DEWT_012023.nc | 26-Oct-2024 17:50 | 427769 | ||
| 44018_TS_DEWT_012024.nc | 26-Oct-2024 17:50 | 440145 | ||
| 44018_TS_DEWT_022003.nc | 26-Oct-2024 17:50 | 440179 | ||
| 44018_TS_DEWT_022005.nc | 26-Oct-2024 17:51 | 440139 | ||
| 44018_TS_DEWT_022006.nc | 26-Oct-2024 17:51 | 440139 | ||
| 44018_TS_DEWT_022007.nc | 26-Oct-2024 17:51 | 439552 | ||
| 44018_TS_DEWT_022008.nc | 26-Oct-2024 17:51 | 425719 | ||
| 44018_TS_DEWT_022009.nc | 26-Oct-2024 17:51 | 440134 | ||
| 44018_TS_DEWT_022010.nc | 26-Oct-2024 17:51 | 479200 | ||
| 44018_TS_DEWT_022011.nc | 26-Oct-2024 17:51 | 4350441 | ||
| 44018_TS_DEWT_022012.nc | 26-Oct-2024 17:51 | 429792 | ||
| 44018_TS_DEWT_022016.nc | 26-Oct-2024 17:51 | 429834 | ||
| 44018_TS_DEWT_022019.nc | 26-Oct-2024 17:51 | 427871 | ||
| 44018_TS_DEWT_022020.nc | 26-Oct-2024 17:51 | 419816 | ||
| 44018_TS_DEWT_022021.nc | 26-Oct-2024 17:51 | 428706 | ||
| 44018_TS_DEWT_022023.nc | 26-Oct-2024 17:51 | 440144 | ||
| 44018_TS_DEWT_022024.nc | 17-Jan-2025 11:20 | 588148 | ||
| 44018_TS_DEWT_032003.nc | 26-Oct-2024 17:51 | 588140 | ||
| 44018_TS_DEWT_032005.nc | 26-Oct-2024 17:51 | 588223 | ||
| 44018_TS_DEWT_032006.nc | 26-Oct-2024 17:51 | 440317 | ||
| 44018_TS_DEWT_032007.nc | 26-Oct-2024 17:51 | 428150 | ||
| 44018_TS_DEWT_032008.nc | 26-Oct-2024 17:51 | 588179 | ||
| 44018_TS_DEWT_032009.nc | 26-Oct-2024 17:51 | 629802 | ||
| 44018_TS_DEWT_032010.nc | 26-Oct-2024 17:51 | 4546324 | ||
| 44018_TS_DEWT_032011.nc | 26-Oct-2024 17:52 | 429329 | ||
| 44018_TS_DEWT_032012.nc | 26-Oct-2024 17:52 | 429415 | ||
| 44018_TS_DEWT_032016.nc | 26-Oct-2024 17:52 | 429277 | ||
| 44018_TS_DEWT_032019.nc | 26-Oct-2024 17:52 | 418799 | ||
| 44018_TS_DEWT_032020.nc | 26-Oct-2024 17:52 | 429363 | ||
| 44018_TS_DEWT_032021.nc | 26-Oct-2024 17:52 | 439433 | ||
| 44018_TS_DEWT_032023.nc | 26-Oct-2024 17:52 | 440159 | ||
| 44018_TS_DEWT_032024.nc | 17-Jan-2025 11:20 | 440151 | ||
| 44018_TS_DEWT_042003.nc | 26-Oct-2024 17:52 | 440091 | ||
| 44018_TS_DEWT_042005.nc | 26-Oct-2024 17:52 | 439805 | ||
| 44018_TS_DEWT_042006.nc | 26-Oct-2024 17:52 | 440169 | ||
| 44018_TS_DEWT_042007.nc | 26-Oct-2024 17:52 | 439977 | ||
| 44018_TS_DEWT_042008.nc | 26-Oct-2024 17:52 | 479941 | ||
| 44018_TS_DEWT_042009.nc | 26-Oct-2024 17:52 | 4357087 | ||
| 44018_TS_DEWT_042010.nc | 26-Oct-2024 17:52 | 429691 | ||
| 44018_TS_DEWT_042011.nc | 26-Oct-2024 17:52 | 429832 | ||
| 44018_TS_DEWT_042015.nc | 26-Oct-2024 17:52 | 428841 | ||
| 44018_TS_DEWT_042016.nc | 26-Oct-2024 17:52 | 429833 | ||
| 44018_TS_DEWT_042017.nc | 26-Oct-2024 17:52 | 429841 | ||
| 44018_TS_DEWT_042018.nc | 26-Oct-2024 17:52 | 418980 | ||
| 44018_TS_DEWT_042019.nc | 26-Oct-2024 17:52 | 587739 | ||
| 44018_TS_DEWT_042020.nc | 26-Oct-2024 17:53 | 588108 | ||
| 44018_TS_DEWT_042023.nc | 26-Oct-2024 17:53 | 426172 | ||
| 44018_TS_DEWT_052003.nc | 26-Oct-2024 17:53 | 588227 | ||
| 44018_TS_DEWT_052004.nc | 26-Oct-2024 17:53 | 588030 | ||
| 44018_TS_DEWT_052005.nc | 26-Oct-2024 17:53 | 440190 | ||
| 44018_TS_DEWT_052006.nc | 26-Oct-2024 17:53 | 588122 | ||
| 44018_TS_DEWT_052007.nc | 26-Oct-2024 17:53 | 440208 | ||
| 44018_TS_DEWT_052008.nc | 26-Oct-2024 17:53 | 629805 | ||
| 44018_TS_DEWT_052009.nc | 26-Oct-2024 17:53 | 3554339 | ||
| 44018_TS_DEWT_052010.nc | 26-Oct-2024 17:53 | 429509 | ||
| 44018_TS_DEWT_052011.nc | 26-Oct-2024 17:53 | 429120 | ||
| 44018_TS_DEWT_052015.nc | 26-Oct-2024 17:53 | 429783 | ||
| 44018_TS_DEWT_052016.nc | 26-Oct-2024 17:53 | 602491 | ||
| 44018_TS_DEWT_052018.nc | 26-Oct-2024 17:53 | 429834 | ||
| 44018_TS_DEWT_052019.nc | 26-Oct-2024 17:53 | 429791 | ||
| 44018_TS_DEWT_052020.nc | 26-Oct-2024 17:54 | 588172 | ||
| 44018_TS_DEWT_052023.nc | 26-Oct-2024 17:54 | 588092 | ||
| 44018_TS_DEWT_062003.nc | 26-Oct-2024 17:54 | 432076 | ||
| 44018_TS_DEWT_062004.nc | 26-Oct-2024 17:54 | 588152 | ||
| 44018_TS_DEWT_062005.nc | 26-Oct-2024 17:54 | 587759 | ||
| 44018_TS_DEWT_062006.nc | 26-Oct-2024 17:54 | 440140 | ||
| 44018_TS_DEWT_062007.nc | 26-Oct-2024 17:54 | 588174 | ||
| 44018_TS_DEWT_062008.nc | 26-Oct-2024 17:54 | 588059 | ||
| 44018_TS_DEWT_062009.nc | 26-Oct-2024 17:54 | 429998 | ||
| 44018_TS_DEWT_062010.nc | 26-Oct-2024 17:54 | 3142118 | ||
| 44018_TS_DEWT_062011.nc | 26-Oct-2024 17:54 | 428203 | ||
| 44018_TS_DEWT_062015.nc | 26-Oct-2024 17:54 | 429337 | ||
| 44018_TS_DEWT_062016.nc | 26-Oct-2024 17:54 | 429471 | ||
| 44018_TS_DEWT_062018.nc | 26-Oct-2024 17:54 | 601210 | ||
| 44018_TS_DEWT_062019.nc | 26-Oct-2024 17:54 | 427194 | ||
| 44018_TS_DEWT_062020.nc | 26-Oct-2024 17:54 | 429455 | ||
| 44018_TS_DEWT_062022.nc | 26-Oct-2024 17:54 | 440146 | ||
| 44018_TS_DEWT_062023.nc | 26-Oct-2024 17:54 | 440127 | ||
| 44018_TS_DEWT_072002.nc | 26-Oct-2024 17:54 | 439959 | ||
| 44018_TS_DEWT_072003.nc | 26-Oct-2024 17:55 | 440156 | ||
| 44018_TS_DEWT_072004.nc | 26-Oct-2024 17:55 | 440094 | ||
| 44018_TS_DEWT_072005.nc | 26-Oct-2024 17:55 | 437967 | ||
| 44018_TS_DEWT_072006.nc | 26-Oct-2024 17:55 | 440145 | ||
| 44018_TS_DEWT_072007.nc | 26-Oct-2024 17:55 | 440143 | ||
| 44018_TS_DEWT_072008.nc | 26-Oct-2024 17:55 | 468775 | ||
| 44018_TS_DEWT_072009.nc | 26-Oct-2024 17:55 | 466311 | ||
| 44018_TS_DEWT_072010.nc | 26-Oct-2024 17:55 | 427110 | ||
| 44018_TS_DEWT_072011.nc | 26-Oct-2024 17:55 | 429447 | ||
| 44018_TS_DEWT_072015.nc | 26-Oct-2024 17:55 | 429702 | ||
| 44018_TS_DEWT_072016.nc | 26-Oct-2024 17:55 | 429809 | ||
| 44018_TS_DEWT_072018.nc | 26-Oct-2024 17:55 | 428634 | ||
| 44018_TS_DEWT_072019.nc | 26-Oct-2024 17:55 | 429835 | ||
| 44018_TS_DEWT_072020.nc | 26-Oct-2024 17:55 | 588205 | ||
| 44018_TS_DEWT_072022.nc | 26-Oct-2024 17:55 | 588195 | ||
| 44018_TS_DEWT_072023.nc | 26-Oct-2024 17:55 | 440222 | ||
| 44018_TS_DEWT_082002.nc | 26-Oct-2024 17:55 | 588166 | ||
| 44018_TS_DEWT_082003.nc | 26-Oct-2024 17:55 | 587968 | ||
| 44018_TS_DEWT_082004.nc | 26-Oct-2024 17:56 | 438843 | ||
| 44018_TS_DEWT_082005.nc | 26-Oct-2024 17:56 | 588161 | ||
| 44018_TS_DEWT_082006.nc | 26-Oct-2024 17:56 | 478491 | ||
| 44018_TS_DEWT_082007.nc | 26-Oct-2024 17:56 | 629628 | ||
| 44018_TS_DEWT_082008.nc | 26-Oct-2024 17:56 | 492771 | ||
| 44018_TS_DEWT_082009.nc | 26-Oct-2024 17:56 | 433086 | ||
| 44018_TS_DEWT_082010.nc | 26-Oct-2024 17:56 | 427671 | ||
| 44018_TS_DEWT_082011.nc | 26-Oct-2024 17:56 | 426622 | ||
| 44018_TS_DEWT_082015.nc | 26-Oct-2024 17:56 | 428962 | ||
| 44018_TS_DEWT_082016.nc | 26-Oct-2024 17:56 | 429476 | ||
| 44018_TS_DEWT_082018.nc | 26-Oct-2024 17:56 | 429497 | ||
| 44018_TS_DEWT_082019.nc | 26-Oct-2024 17:56 | 428825 | ||
| 44018_TS_DEWT_082020.nc | 26-Oct-2024 17:56 | 440144 | ||
| 44018_TS_DEWT_082022.nc | 26-Oct-2024 17:56 | 439659 | ||
| 44018_TS_DEWT_082023.nc | 26-Oct-2024 17:56 | 440150 | ||
| 44018_TS_DEWT_092002.nc | 26-Oct-2024 17:56 | 440082 | ||
| 44018_TS_DEWT_092003.nc | 26-Oct-2024 17:57 | 439984 | ||
| 44018_TS_DEWT_092004.nc | 26-Oct-2024 17:57 | 434722 | ||
| 44018_TS_DEWT_092005.nc | 26-Oct-2024 17:57 | 439978 | ||
| 44018_TS_DEWT_092006.nc | 26-Oct-2024 17:57 | 479672 | ||
| 44018_TS_DEWT_092007.nc | 26-Oct-2024 17:57 | 478761 | ||
| 44018_TS_DEWT_092008.nc | 26-Oct-2024 17:57 | 4770034 | ||
| 44018_TS_DEWT_092009.nc | 26-Oct-2024 17:57 | 2208669 | ||
| 44018_TS_DEWT_092010.nc | 26-Oct-2024 17:57 | 429818 | ||
| 44018_TS_DEWT_092015.nc | 26-Oct-2024 17:57 | 429684 | ||
| 44018_TS_DEWT_092016.nc | 26-Oct-2024 17:57 | 422087 | ||
| 44018_TS_DEWT_092018.nc | 26-Oct-2024 17:57 | 429835 | ||
| 44018_TS_DEWT_092019.nc | 26-Oct-2024 17:57 | 588173 | ||
| 44018_TS_DEWT_092020.nc | 26-Oct-2024 17:57 | 588176 | ||
| 44018_TS_DEWT_092022.nc | 26-Oct-2024 17:57 | 588119 | ||
| 44018_TS_DEWT_092023.nc | 26-Oct-2024 17:57 | 440284 | ||
| 44018_TS_DEWT_102002.nc | 26-Oct-2024 17:57 | 440282 | ||
| 44018_TS_DEWT_102003.nc | 26-Oct-2024 17:57 | 438895 | ||
| 44018_TS_DEWT_102004.nc | 26-Oct-2024 17:57 | 432638 | ||
| 44018_TS_DEWT_102005.nc | 26-Oct-2024 17:57 | 629336 | ||
| 44018_TS_DEWT_102006.nc | 26-Oct-2024 17:57 | 630139 | ||
| 44018_TS_DEWT_102007.nc | 26-Oct-2024 17:57 | 4544856 | ||
| 44018_TS_DEWT_102008.nc | 26-Oct-2024 17:58 | 3588017 | ||
| 44018_TS_DEWT_102009.nc | 26-Oct-2024 17:58 | 439630 | ||
| 44018_TS_DEWT_102010.nc | 26-Oct-2024 17:58 | 627243 | ||
| 44018_TS_DEWT_102011.nc | 26-Oct-2024 17:58 | 424736 | ||
| 44018_TS_DEWT_102015.nc | 26-Oct-2024 17:58 | 718325 | ||
| 44018_TS_DEWT_102016.nc | 26-Oct-2024 17:58 | 477579 | ||
| 44018_TS_DEWT_102018.nc | 26-Oct-2024 17:58 | 475138 | ||
| 44018_TS_DEWT_102019.nc | 26-Oct-2024 17:58 | 4437710 | ||
| 44018_TS_DEWT_102020.nc | 26-Oct-2024 17:58 | 469442 | ||
| 44018_TS_DEWT_102022.nc | 26-Oct-2024 17:58 | 627849 | ||
| 44018_TS_DEWT_102023.nc | 26-Oct-2024 17:58 | 628150 | ||
| 44018_TS_DEWT_112002.nc | 26-Oct-2024 17:58 | 3704029 | ||
| 44018_TS_DEWT_112003.nc | 26-Oct-2024 17:58 | 479467 | ||
| 44018_TS_DEWT_112004.nc | 26-Oct-2024 17:58 | 478412 | ||
| 44018_TS_DEWT_112005.nc | 26-Oct-2024 17:59 | 479141 | ||
| 44018_TS_DEWT_112006.nc | 26-Oct-2024 17:59 | 628809 | ||
| 44018_TS_DEWT_112007.nc | 26-Oct-2024 17:59 | 627341 | ||
| 44018_TS_DEWT_112008.nc | 26-Oct-2024 17:59 | 627079 | ||
| 44018_TS_DEWT_112009.nc | 26-Oct-2024 17:59 | 478840 | ||
| 44018_TS_DEWT_112010.nc | 26-Oct-2024 17:59 | 440219 | ||
| 44018_TS_DEWT_112011.nc | 26-Oct-2024 17:59 | 481822 | ||
| 44018_TS_DEWT_112015.nc | 26-Oct-2024 17:59 | 627851 | ||
| 44018_TS_DEWT_112016.nc | 26-Oct-2024 17:59 | 421420 | ||
| 44018_TS_DEWT_112018.nc | 26-Oct-2024 17:59 | 627595 | ||
| 44018_TS_DEWT_112019.nc | 26-Oct-2024 17:59 | 628728 | ||
| 44018_TS_DEWT_112020.nc | 26-Oct-2024 17:59 | 630079 | ||
| 44018_TS_DEWT_112022.nc | 26-Oct-2024 17:59 | 630400 | ||
| 44018_TS_DEWT_112023.nc | 26-Oct-2024 17:59 | 481234 | ||
| 44018_TS_DEWT_122002.nc | 26-Oct-2024 17:59 | 478503 | ||
| 44018_TS_DEWT_122003.nc | 26-Oct-2024 17:59 | 478823 | ||
| 44018_TS_DEWT_122004.nc | 26-Oct-2024 17:59 | 628046 | ||
| 44018_TS_DEWT_122005.nc | 26-Oct-2024 17:59 | 437505 | ||
| 44018_TS_DEWT_122006.nc | 26-Oct-2024 18:00 | 629838 | ||
| 44018_TS_DEWT_122007.nc | 26-Oct-2024 18:00 | 419844 | ||
| 44018_TS_DEWT_122008.nc | 26-Oct-2024 18:00 | 479944 | ||
| 44018_TS_DEWT_122009.nc | 26-Oct-2024 18:00 | 476738 | ||
| 44018_TS_DEWT_122010.nc | 26-Oct-2024 18:00 | 481626 | ||
| 44018_TS_DEWT_122011.nc | 26-Oct-2024 18:00 | 628365 | ||
| 44018_TS_DEWT_122015.nc | 26-Oct-2024 18:00 | 625985 | ||
| 44018_TS_DEWT_122016.nc | 26-Oct-2024 18:00 | 440001 | ||
| 44018_TS_DEWT_122018.nc | 26-Oct-2024 18:00 | 439738 | ||
| 44018_TS_DEWT_122019.nc | 26-Oct-2024 18:00 | 587286 | ||
| 44018_TS_DEWT_122020.nc | 26-Oct-2024 18:00 | 428640 | ||
| 44018_TS_DEWT_122022.nc | 26-Oct-2024 18:00 | 425251 | ||
| 44018_TS_DEWT_122023.nc | 26-Oct-2024 18:00 | 718836 | ||